Leesburg, FL

1:23 AM EST on December 13, 2019 (GMT -0500)
Leesburg Regional

Weather History for KLEE - October, 2019

Change the Weather History Date:

Wednesday, October 30, 2019

  Actual Average Record
Temperature  
Mean Temperature 82 °F -  
Max Temperature 91 °F 80 °F 91 °F (1959)
Min Temperature 75 °F 59 °F 42 °F (1963)
Cooling Degree Days 18    
Growing Degree Days 32 (Base 50)    
Moisture  
Dew Point 73 °F    
Average Humidity 75    
Maximum Humidity 94    
Minimum Humidity 52    
Precipitation  
Precipitation 0.00 in - - ()
Sea Level Pressure  
Sea Level Pressure 30.06 in    
Wind  
Wind Speed 5 mph (ESE)    
Max Wind Speed 9 mph    
Max Gust Speed -    
Visibility 10 miles    
Events      
Averages and records for this station are not official NWS values.
T = Trace of Precipitation, MM = Missing Value Source: NWS Daily Summary

Daily Weather History Graph

Daily Weather History Graph

Search for Another Location

Airport or City:

Astronomy

Oct. 30, 2019 Rise Set
Actual Time 7:37 AM EDT 6:43 PM EDT
Civil Twilight 7:13 AM EDT 7:07 PM EDT
Nautical Twilight 6:45 AM EDT 7:35 PM EDT
Astronomical Twilight 6:18 AM EDT 8:03 PM EDT
Moon 10:10 AM EDT (10/30) 9:01 PM EDT (10/30)
Length of Visible Light 11h 54m
Length of Day
11h 05m
Waxing Crescent, 8% of the Moon is Illuminated
Oct 30
Waxing Crescent
Nov 4
First Quarter
Nov 12
Full
Nov 19
Last Quarter
Nov 26
New

Hourly Weather History & Observations

Time (EDT) Temp. Heat Index Dew Point Humidity Pressure Visibility Wind Dir Wind Speed Gust Speed Precip Events Conditions
12:53 AM 79.0 °F - 75.0 °F 88% 30.09 in 10.0 mi ENE 4.6 mph - N/A   Clear
1:53 AM 78.1 °F - 75.0 °F 90% 30.08 in 10.0 mi East 3.5 mph - N/A   Clear
2:53 AM 79.0 °F - 75.0 °F 88% 30.06 in 10.0 mi East 5.8 mph - N/A   Clear
3:53 AM 78.1 °F - 75.0 °F 90% 30.04 in 10.0 mi East 3.5 mph - N/A   Clear
4:53 AM 77.0 °F - 73.9 °F 90% 30.05 in 8.0 mi NE 3.5 mph - N/A   Clear
5:53 AM 75.9 °F - 73.9 °F 94% 30.06 in 8.0 mi NE 3.5 mph - N/A   Clear
6:53 AM 75.9 °F - 73.0 °F 91% 30.07 in 8.0 mi East 4.6 mph - N/A   Clear
7:53 AM 77.0 °F - 73.9 °F 90% 30.08 in 9.0 mi ENE 3.5 mph - N/A   Clear
8:53 AM 81.0 °F 87.3 °F 75.9 °F 85% 30.10 in 10.0 mi East 3.5 mph - N/A   Clear
9:53 AM 82.9 °F 90.8 °F 75.9 °F 79% 30.11 in 10.0 mi ESE 6.9 mph - N/A   Clear
10:53 AM 84.0 °F 91.9 °F 75.0 °F 74% 30.11 in 10.0 mi ESE 4.6 mph - N/A   Partly Cloudy
11:20 AM 84.9 °F 92.1 °F 73.9 °F 69% 30.11 in 10.0 mi Variable 5.8 mph - N/A   Mostly Cloudy
11:27 AM 84.9 °F 92.1 °F 73.9 °F 69% 30.11 in 10.0 mi SSE 6.9 mph - N/A   Mostly Cloudy
11:53 AM 86.0 °F 93.8 °F 73.9 °F 67% 30.10 in 10.0 mi SSE 5.8 mph - N/A   Mostly Cloudy
1:53 PM 90.0 °F 96.9 °F 72.0 °F 55% 30.05 in 10.0 mi SSE 6.9 mph - N/A   Clear
2:53 PM 90.0 °F 96.4 °F 71.1 °F 54% 30.02 in 10.0 mi South 8.1 mph - N/A   Clear
3:53 PM 89.1 °F 94.1 °F 70.0 °F 53% 30.01 in 10.0 mi South 5.8 mph - N/A   Clear
4:53 PM 90.0 °F 95.4 °F 70.0 °F 52% 30.01 in 10.0 mi SSE 5.8 mph - N/A   Partly Cloudy
5:53 PM 89.1 °F 95.0 °F 71.1 °F 55% 30.01 in 10.0 mi South 3.5 mph - N/A   Clear
6:53 PM 84.9 °F 91.4 °F 73.0 °F 67% 30.01 in 10.0 mi Calm Calm - N/A   Clear
7:53 PM 82.9 °F 89.4 °F 73.9 °F 74% 30.02 in 10.0 mi East 3.5 mph - N/A   Scattered Clouds
8:53 PM 82.9 °F 88.8 °F 73.0 °F 72% 30.03 in 10.0 mi ESE 9.2 mph - N/A   Partly Cloudy
9:53 PM 82.0 °F 87.4 °F 73.0 °F 74% 30.05 in 10.0 mi East 4.6 mph - N/A   Clear
10:53 PM 81.0 °F 85.8 °F 73.0 °F 77% 30.05 in 10.0 mi ESE 8.1 mph - N/A   Clear
11:53 PM 80.1 °F 84.2 °F 73.0 °F 79% 30.06 in 10.0 mi ESE 5.8 mph - N/A   Clear